Location: Gouvernes
(48.8601°N, 2.6907°E)
Time: 16:25:09
(UTC+00:00)

Cosmos 2218 Rocket - Pass Details

Date: 16 October 2021
Orbit: 956 x 1006 km, 82.9° (Epoch: 28 November)

Event Time Altitude Azimuth Distance (km) Brightness Sun altitude
Rises 17:17:49 0° 178° (S) 3,660 7.1 -4.1°
Reaches altitude 10° 17:20:19 10° 176° (S) 2,724 6.4 -4.5°
Maximum altitude 17:26:31 69° 95° (E) 1,056 4.0 -5.5°
Drops below altitude 10° 17:32:50 10° 13° (NNE) 2,776 6.2 -6.6°
Sets 17:35:23 0° 12° (NNE) 3,735 6.9 -7.0°
